[[{"header":{"parameterUnit":"m.s-1","parameterCategory":1,"la1":30.2992,"la2":30.254,"lo1":-89.0895,"lo2":-89.0443,"dy":0.0025,"dx":0.0025,"nx":19,"ny":19,"refTime":"2026-04-22T09:00:00:Z","depth":0,"parameterNumber":2,"parameterNumberName":"U-component_of_WINDS"},"data":[0,0,0,-3.6648,-3.6651,-3.6806,-3.6806,-3.7007,-3.7009,0,0,0,0,0,0,0,0,0,0,0,-3.6604,-3.6605,-3.6647,-3.6651,-3.6806,-3.6806,-3.7007,-3.7009,0,0,0,0,0,0,0,0,0,0,0,-3.6603,-3.6605,-3.6607,-3.6652,-3.6806,-3.6806,-3.7006,-3.6888,0,0,0,0,0,0,0,0,0,0,-3.6738,-3.67,-3.6605,-3.6607,-3.6653,-3.6805,-3.6806,-3.6883,-3.6896,-3.6938,0,-3.6977,0,-3.6996,-3.7022,-3.7023,0,0,0,-3.6649,-3.6689,-3.6729,-3.6607,-3.6654,-3.6805,-3.6736,-3.689,-3.6905,-3.6956,-3.698,-3.6987,-3.6999,-3.7024,-3.7025,-3.7276,-3.7277,0,0,-3.6641,-3.6633,-3.6718,-3.6738,-3.6715,-3.6731,-3.674,-3.6899,-3.6925,-3.6981,-3.6992,-3.7003,-3.7025,-3.7027,-3.7275,-3.7277,0,0,0,-3.6618,-3.6627,-3.6663,-3.673,-3.6758,-3.6735,-3.6746,-3.6917,-3.693,-3.6994,-3.7005,-3.7026,-3.7029,-3.7274,-3.7276,-3.7329,0,0,0,-3.6612,-3.6613,-3.6659,-3.6656,-3.6755,-3.684,-3.6762,-3.6919,-3.6937,-3.7004,-3.7026,-3.7031,-3.7272,-3.7275,-3.7324,-3.7355,0,0,0,-3.6593,-3.6611,-3.6634,-3.6655,-3.6721,-3.6837,-3.6859,-3.6923,-3.6944,-3.7023,-3.7031,-3.7271,-3.7274,-3.7321,-3.7348,-3.7418,0,0,0,-3.657,-3.668,-3.6635,-3.6762,-3.672,-3.687,-3.6858,-3.697,-3.7044,-3.7027,-3.7273,-3.7275,-3.7319,-3.7345,-3.7413,-3.7473,-3.7498,0,0,-3.6704,-3.6696,-3.6772,-3.6736,-3.6891,-3.6847,-3.701,-3.7086,-3.7101,-3.7217,-3.7223,-3.7326,-3.7348,-3.7417,-3.7641,-3.7661,0,0,0,-3.6811,-3.6865,-3.6908,-3.6979,-3.704,-3.7094,-3.7145,-3.7173,-3.7272,-3.7159,-3.7371,-3.7384,-3.7425,-3.7453,-3.747,-3.7505,-3.7289,-3.7289,-3.7288,-3.6988,-3.7002,-3.7127,-3.7159,-3.7228,-3.728,-3.7336,-3.7383,-3.7377,-3.7427,-3.746,-3.7595,-3.7629,-3.7641,-3.7677,-3.7495,-3.7495,-3.7495,-3.7495,-3.7184,-3.7262,-3.7251,-3.7368,-3.7382,-3.7481,-3.7535,-3.7528,-3.7621,-3.7571,-3.7607,-3.7549,-3.7662,-3.7694,-3.7499,-3.7499,-3.7498,-3.7498,-3.7497,-3.73,-3.734,-3.7372,-3.7475,-3.7553,-3.7582,-3.7672,-3.7682,-3.7691,-3.7727,-3.7763,-3.7762,-3.7761,-3.7744,-3.7745,-3.7745,-3.7746,-3.7746,-3.7746,-3.7407,-3.7442,-3.7516,-3.759,-3.7636,-3.7698,-3.7752,-3.7798,-3.7851,-3.7851,-3.7851,-3.7838,-3.7671,-3.7628,-3.7753,-3.7752,-3.7751,-3.775,-3.775,-3.7597,-3.7556,-3.7671,-3.7717,-3.7804,-3.788,-3.7892,-3.7984,-3.8023,-3.8067,-3.8048,-3.7923,-3.7915,-3.7902,-3.7865,-3.8045,-3.8045,-3.8045,-3.8045,-3.7693,-3.7691,-3.781,-3.7883,-3.7956,-3.7978,-3.8107,-3.815,-3.8188,-3.8213,-3.8189,-3.8143,-3.8129,-3.8129,-3.8111,-3.8077,-3.8307,-3.8307,-3.8307,-3.781,-3.7815,-3.7923,-3.7959,-3.8028,-3.8087,-3.8208,-3.8292,-3.8327,-3.8318,-3.8232,-3.8221,-3.8147,-3.8122,-3.8109,-3.8081,-3.802,0,0]},{"header":{"parameterUnit":"m.s-1","parameterCategory":1,"la1":30.2992,"la2":30.254,"lo1":-89.0895,"lo2":-89.0443,"dy":0.0025,"dx":0.0025,"nx":19,"ny":19,"refTime":"2026-04-22T09:00:00:Z","depth":0,"parameterNumber":3,"parameterNumberName":"V-component_of_WINDS"},"data":[0,0,0,3.7883,3.7885,3.7965,3.7965,3.8076,3.8077,0,0,0,0,0,0,0,0,0,0,0,3.7869,3.787,3.7883,3.7886,3.7965,3.7965,3.8076,3.8077,0,0,0,0,0,0,0,0,0,0,0,3.7868,3.7869,3.7871,3.7886,3.7965,3.7965,3.8076,3.8012,0,0,0,0,0,0,0,0,0,0,3.7933,3.7928,3.7869,3.7871,3.7886,3.7965,3.7965,3.8009,3.8016,3.8046,0,3.8077,0,3.8079,3.8086,3.8086,0,0,0,3.7878,3.7922,3.7936,3.7871,3.7887,3.7964,3.7927,3.8012,3.8021,3.8055,3.8078,3.8082,3.8081,3.8087,3.8087,3.8288,3.8289,0,0,3.7874,3.7887,3.7931,3.7942,3.7933,3.7924,3.7929,3.8017,3.8042,3.8078,3.8084,3.8083,3.8087,3.8088,3.8287,3.8288,0,0,0,3.7866,3.7884,3.7896,3.7938,3.7952,3.7927,3.7933,3.8038,3.8041,3.8085,3.8084,3.8088,3.809,3.8285,3.8287,3.8362,0,0,0,3.7863,3.788,3.7894,3.7903,3.795,3.7996,3.7952,3.8035,3.8044,3.8084,3.8088,3.8091,3.8284,3.8286,3.8357,3.8395,0,0,0,3.786,3.7879,3.7894,3.7903,3.7938,3.7995,3.8002,3.8036,3.8044,3.8086,3.8091,3.8283,3.8286,3.8353,3.8387,3.845,0,0,0,3.786,3.7959,3.7895,3.8005,3.7938,3.8042,3.8001,3.8078,3.8124,3.8089,3.8284,3.8287,3.8351,3.8383,3.8445,3.8504,3.8531,0,0,3.7992,3.7976,3.8039,3.7984,3.8103,3.8029,3.8158,3.8186,3.8178,3.8251,3.8256,3.8359,3.8387,3.8449,3.8678,3.8699,0,0,0,3.8085,3.813,3.8159,3.8204,3.823,3.8254,3.8262,3.8272,3.8334,3.8219,3.8399,3.8415,3.8451,3.8479,3.8497,3.8526,3.8301,3.83,3.83,3.8288,3.8273,3.8376,3.8371,3.8415,3.8423,3.8456,3.8471,3.8442,3.8485,3.8506,3.8647,3.8679,3.8693,3.8723,3.8538,3.8538,3.8538,3.8538,3.8477,3.8538,3.85,3.8586,3.8569,3.864,3.8651,3.8628,3.869,3.863,3.8661,3.8594,3.8716,3.8742,3.8544,3.8543,3.8542,3.8542,3.8541,3.8607,3.8633,3.8646,3.871,3.876,3.875,3.8813,3.8795,3.8778,3.8809,3.8828,3.8827,3.8821,3.882,3.8821,3.8821,3.8821,3.8822,3.8822,3.8735,3.8747,3.8803,3.8839,3.8865,3.8897,3.8906,3.8931,3.8953,3.8935,3.8935,3.89,3.8733,3.8689,3.8829,3.8828,3.8827,3.8827,3.8826,3.8929,3.8883,3.8969,3.8995,3.9035,3.9085,3.9063,3.9115,3.9132,3.9163,3.9123,3.9002,3.8983,3.8969,3.8932,3.9127,3.9127,3.9127,3.9127,3.9037,3.9027,3.911,3.9153,3.9194,3.9182,3.9277,3.9285,3.9285,3.9294,3.9264,3.9216,3.9202,3.9191,3.9171,3.9137,3.938,3.938,3.938,3.9154,3.9147,3.9232,3.9234,3.9264,3.929,3.9378,3.9427,3.9417,3.939,3.9301,3.929,3.9212,3.9187,3.9156,3.9126,3.9063,0,0]}]]